Time,TemperatureF,DewpointF,PressureIn,WindDirection,WindDirectionDegrees,WindSpeedMPH,WindSpeedGustMPH,Humidity,HourlyPrecipIn,Conditions,Clouds,dailyrainin,SolarRadiationWatts/m^2,SoftwareType,DateUTC
2013-07-06 00:12:00,72.0,26.0,-100.00,NW,315,0.0,8.0,18,0.00,,,0.00,0.000000,,2013-07-06 07:12:00,
2013-07-06 00:22:00,72.0,26.0,-100.00,NW,315,0.0,8.0,18,0.00,,,0.00,0.000000,,2013-07-06 07:22:00,
2013-07-06 00:33:00,72.0,26.0,-100.00,NW,315,0.0,8.0,18,0.00,,,0.00,0.000000,,2013-07-06 07:33:00,
2013-07-06 00:43:00,72.0,26.0,-100.00,NW,315,0.0,8.0,18,0.00,,,0.00,0.000000,,2013-07-06 07:43:00,
2013-07-06 01:11:00,66.0,27.0,-100.00,South,181,1.0,5.0,23,0.00,,,0.00,0.000000,,2013-07-06 08:11:00,
2013-07-06 01:21:00,66.0,27.0,-100.00,South,181,1.0,5.0,23,0.00,,,0.00,0.000000,,2013-07-06 08:21:00,
2013-07-06 01:33:00,66.0,27.0,-100.00,South,181,1.0,5.0,23,0.00,,,0.00,0.000000,,2013-07-06 08:33:00,
2013-07-06 01:43:00,66.0,27.0,-100.00,South,181,1.0,5.0,23,0.00,,,0.00,0.000000,,2013-07-06 08:43:00,
2013-07-06 02:33:00,64.0,26.0,-100.00,SSE,152,0.0,6.0,24,0.00,,,0.00,0.000000,,2013-07-06 09:33:00,
2013-07-06 05:33:00,58.0,26.0,-100.00,SW,219,0.0,5.0,29,0.00,,,0.00,0.000000,,2013-07-06 12:33:00,
2013-07-06 05:43:00,58.0,26.0,-100.00,SW,219,0.0,5.0,29,0.00,,,0.00,0.000000,,2013-07-06 12:43:00,
2013-07-06 07:22:00,66.0,29.0,-100.00,WSW,256,0.0,0.0,25,0.00,,,0.00,98.000000,,2013-07-06 14:22:00,
2013-07-06 07:34:00,66.0,29.0,-100.00,WSW,256,0.0,0.0,25,0.00,,,0.00,98.000000,,2013-07-06 14:34:00,
2013-07-06 07:42:00,66.0,29.0,-100.00,WSW,256,0.0,0.0,25,0.00,,,0.00,98.000000,,2013-07-06 14:42:00,
2013-07-06 10:44:00,86.0,39.0,-100.00,NNE,22,5.0,9.0,19,-99.99,,,0.00,799.000000,,2013-07-06 17:44:00,
2013-07-06 11:18:00,86.0,38.0,-100.00,NE,36,5.0,12.0,18,0.00,,,0.00,993.000000,,2013-07-06 18:18:00,
2013-07-06 11:27:00,86.0,38.0,-100.00,NE,36,5.0,12.0,18,0.00,,,0.00,993.000000,,2013-07-06 18:27:00,
2013-07-06 11:37:00,86.0,38.0,-100.00,NE,36,5.0,12.0,18,0.00,,,0.00,993.000000,,2013-07-06 18:37:00,
2013-07-06 12:26:00,91.0,40.0,-100.00,North,5,5.0,10.0,17,0.00,,,0.00,1135.000000,,2013-07-06 19:26:00,
2013-07-06 12:36:00,91.0,40.0,-100.00,North,5,5.0,10.0,17,0.00,,,0.00,1135.000000,,2013-07-06 19:36:00,
2013-07-06 12:45:00,91.0,40.0,-100.00,North,5,5.0,10.0,17,0.00,,,0.00,1135.000000,,2013-07-06 19:45:00,
2013-07-06 13:17:00,94.0,39.0,-100.00,NNW,335,5.0,19.0,15,0.00,,,0.00,1212.000000,,2013-07-06 20:17:00,
2013-07-06 13:27:00,94.0,39.0,-100.00,NNW,335,5.0,19.0,15,0.00,,,0.00,1212.000000,,2013-07-06 20:27:00,
2013-07-06 14:14:00,97.0,34.0,-100.00,SSW,201,7.0,24.0,11,0.00,,,0.00,1237.000000,,2013-07-06 21:14:00,
2013-07-06 14:37:00,97.0,34.0,-100.00,SSW,201,7.0,24.0,11,0.00,,,0.00,1237.000000,,2013-07-06 21:37:00,
2013-07-06 15:17:00,97.0,34.0,-100.00,SW,228,12.0,25.0,11,0.00,,,0.00,1184.000000,,2013-07-06 22:17:00,
2013-07-06 15:36:00,97.0,34.0,-100.00,SW,228,12.0,25.0,11,0.00,,,0.00,1184.000000,,2013-07-06 22:36:00,
2013-07-06 16:17:00,97.0,36.0,-100.00,NE,52,6.0,23.0,12,0.00,,,0.00,1015.000000,,2013-07-06 23:17:00,
2013-07-06 16:46:00,97.0,36.0,-100.00,NE,52,6.0,23.0,12,0.00,,,0.00,1015.000000,,2013-07-06 23:46:00,
2013-07-06 17:25:00,96.0,35.0,-100.00,West,261,15.0,30.0,12,0.00,,,0.00,858.000000,,2013-07-07 00:25:00,
2013-07-06 17:36:00,96.0,35.0,-100.00,West,261,15.0,30.0,12,0.00,,,0.00,858.000000,,2013-07-07 00:36:00,
2013-07-06 17:45:00,96.0,35.0,-100.00,West,261,15.0,30.0,12,0.00,,,0.00,858.000000,,2013-07-07 00:45:00,
2013-07-06 18:16:00,96.0,37.0,-100.00,WSW,246,14.0,31.0,13,0.00,,,0.00,634.000000,,2013-07-07 01:16:00,
2013-07-06 18:35:00,96.0,37.0,-100.00,WSW,246,14.0,31.0,13,0.00,,,0.00,634.000000,,2013-07-07 01:35:00,
2013-07-06 18:44:00,96.0,37.0,-100.00,WSW,246,14.0,31.0,13,0.00,,,0.00,634.000000,,2013-07-07 01:44:00,
2013-07-06 20:33:00,88.0,41.0,-100.00,WNW,289,19.0,28.0,19,0.00,,,0.00,91.000000,,2013-07-07 03:33:00,
2013-07-06 21:11:00,83.0,40.0,-100.00,West,281,19.0,27.0,22,0.00,,,0.00,20.000000,,2013-07-07 04:11:00,
2013-07-06 21:21:00,83.0,40.0,-100.00,West,281,19.0,27.0,22,0.00,,,0.00,20.000000,,2013-07-07 04:21:00,
2013-07-06 21:31:00,83.0,40.0,-100.00,West,281,19.0,27.0,22,0.00,,,0.00,20.000000,,2013-07-07 04:31:00,
2013-07-06 21:41:00,83.0,40.0,-100.00,West,281,19.0,27.0,22,0.00,,,0.00,20.000000,,2013-07-07 04:41:00,
2013-07-06 22:11:00,79.0,40.0,-100.00,WNW,284,16.0,29.0,25,0.00,,,0.00,0.000000,,2013-07-07 05:11:00,
2013-07-06 22:21:00,79.0,40.0,-100.00,WNW,284,16.0,29.0,25,0.00,,,0.00,0.000000,,2013-07-07 05:21:00,
2013-07-06 22:31:00,79.0,40.0,-100.00,WNW,284,16.0,29.0,25,0.00,,,0.00,0.000000,,2013-07-07 05:31:00,
2013-07-06 22:41:00,79.0,40.0,-100.00,WNW,284,16.0,29.0,25,0.00,,,0.00,0.000000,,2013-07-07 05:41:00,
2013-07-06 23:11:00,78.0,40.0,-100.00,WNW,287,11.0,23.0,26,0.00,,,0.00,0.000000,,2013-07-07 06:11:00,
2013-07-06 23:21:00,78.0,40.0,-100.00,WNW,287,11.0,23.0,26,0.00,,,0.00,0.000000,,2013-07-07 06:21:00,
2013-07-06 23:32:00,78.0,40.0,-100.00,WNW,287,11.0,23.0,26,0.00,,,0.00,0.000000,,2013-07-07 06:32:00,
2013-07-06 23:43:00,78.0,40.0,-100.00,WNW,287,11.0,23.0,26,0.00,,,0.00,0.000000,,2013-07-07 06:43:00,